| time (UTC) | temp C | wind direction | speed KPH | gust KPH | rain 1hr cm | rain 24hr cm | rain mn cm | humidity % | barometer mb |
| 20260504031510 | 7 | 1 | 0.0 | 4.8 | 0.00 | 0.00 | 0.00 | 54 | 1009.8 |
| 20260504030018 | 7 | 323 | 0.0 | 3.2 | 0.00 | 0.00 | 0.00 | 57 | 1009.7 |
| 20260504024511 | 7 | 314 | 0.0 | 0.0 | 0.00 | 0.00 | 0.00 | 55 | 1009.6 |
| 20260504023009 | 7 | 314 | 0.0 | 0.0 | 0.00 | 0.00 | 0.00 | 48 | 1009.7 |
| 20260504021508 | 7 | 314 | 0.0 | 1.6 | 0.00 | 0.00 | 0.00 | 51 | 1009.7 |
| 20260504020011 | 8 | 314 | 0.0 | 3.2 | 0.00 | 0.00 | 0.00 | 46 | 1009.7 |
| 20260504014514 | 8 | 311 | 0.0 | 0.0 | 0.00 | 0.00 | 0.00 | 44 | 1009.8 |
| 20260504013025 | 9 | 311 | 0.0 | 0.0 | 0.00 | 0.00 | 0.00 | 41 | 1009.8 |
| 20260504011507 | 10 | 311 | 0.0 | 0.0 | 0.00 | 0.00 | 0.00 | 39 | 1009.7 |
| 20260504010007 | 10 | 312 | 0.0 | 4.8 | 0.00 | 0.00 | 0.00 | 38 | 1009.3 |
| 20260504004643 | 10 | 321 | 0.0 | 3.2 | 0.00 | 0.00 | 0.00 | 36 | 1009.2 |
| 20260504003006 | 11 | 356 | 1.6 | 6.4 | 0.00 | 0.00 | 0.00 | 36 | 1009.0 |
| 20260504001504 | 11 | 326 | 3.2 | 11.3 | 0.00 | 0.00 | 0.00 | 35 | 1008.7 |
| 20260504000004 | 11 | 309 | 1.6 | 9.7 | 0.00 | 0.00 | 0.00 | 34 | 1008.5 |
| 20260503234503 | 12 | 276 | 0.0 | 11.3 | 0.00 | 0.00 | 0.00 | 33 | 1008.3 |
| 20260503233006 | 12 | 336 | 3.2 | 16.1 | 0.00 | 0.00 | 0.00 | 31 | 1008.1 |
| 20260503231502 | 12 | 338 | 4.8 | 19.3 | 0.00 | 0.00 | 0.00 | 29 | 1007.9 |
| 20260503230001 | 13 | 307 | 4.8 | 17.7 | 0.00 | 0.00 | 0.00 | 26 | 1007.7 |
| 20260503224607 | 13 | 321 | 3.2 | 14.5 | 0.00 | 0.00 | 0.00 | 23 | 1007.5 |
| 20260503223059 | 14 | 298 | 3.2 | 9.7 | 0.00 | 0.00 | 0.00 | 22 | 1007.3 |
| 20260503221604 | 14 | 354 | 4.8 | 12.9 | 0.00 | 0.00 | 0.00 | 21 | 1007.3 |
| 20260503220058 | 15 | 331 | 1.6 | 19.3 | 0.00 | 0.00 | 0.00 | 22 | 1007.3 |
| 20260503214600 | 15 | 314 | 4.8 | 12.9 | 0.00 | 0.00 | 0.00 | 24 | 1007.2 |
| 20260503213054 | 15 | 330 | 8.0 | 17.7 | 0.00 | 0.00 | 0.00 | 25 | 1007.4 |
| 20260503211553 | 14 | 291 | 4.8 | 19.3 | 0.00 | 0.00 | 0.00 | 27 | 1007.4 |
| 20260503210051 | 14 | 353 | 3.2 | 8.0 | 0.00 | 0.00 | 0.00 | 28 | 1007.5 |
| 20260503204546 | 13 | 1 | 3.2 | 8.0 | 0.00 | 0.00 | 0.00 | 29 | 1007.7 |
| 20260503203102 | 12 | 287 | 3.2 | 12.9 | 0.00 | 0.00 | 0.00 | 31 | 1007.9 |
| 20260503201541 | 12 | 325 | 6.4 | 17.7 | 0.00 | 0.00 | 0.00 | 31 | 1008.1 |
| 20260503200040 | 12 | 354 | 4.8 | 12.9 | 0.00 | 0.00 | 0.00 | 31 | 1008.2 |
| 20260503194542 | 12 | 103 | 4.8 | 16.1 | 0.00 | 0.00 | 0.00 | 31 | 1008.4 |
| 20260503193038 | 12 | 359 | 6.4 | 16.1 | 0.00 | 0.00 | 0.00 | 32 | 1008.6 |
| 20260503191531 | 12 | 316 | 3.2 | 12.9 | 0.00 | 0.00 | 0.00 | 33 | 1008.6 |
| 20260503190040 | 11 | 295 | 3.2 | 14.5 | 0.00 | 0.00 | 0.00 | 34 | 1008.8 |
| 20260503184529 | 12 | 317 | 3.2 | 9.7 | 0.00 | 0.00 | 0.00 | 35 | 1008.9 |
| 20260503183025 | 11 | 321 | 1.6 | 8.0 | 0.00 | 0.00 | 0.00 | 36 | 1009.0 |
| 20260503181523 | 11 | 1 | 4.8 | 12.9 | 0.00 | 0.00 | 0.00 | 37 | 1009.3 |
| 20260503180022 | 11 | 306 | 3.2 | 12.9 | 0.00 | 0.00 | 0.00 | 36 | 1009.3 |
| 20260503174520 | 10 | 297 | 3.2 | 11.3 | 0.00 | 0.00 | 0.00 | 39 | 1009.4 |
| 20260503173020 | 10 | 346 | 1.6 | 12.9 | 0.00 | 0.00 | 0.00 | 36 | 1009.5 |
| 20260503171520 | 11 | 303 | 3.2 | 14.5 | 0.00 | 0.00 | 0.00 | 37 | 1009.4 |
| 20260503130156 | 8 | 293 | 3.2 | 8.0 | 0.00 | 0.00 | 0.00 | 54 | 1010.4 |